Regional Weather Roundup
Issued by NWS

Home | Current Version | Previous Version | Graphics & Text | Print | Product List | Glossary On
Versions: 1 2 3 4 5 6 7 8 9 10 11 12 13 14 15 16 17 18 19 20 21 22 23 24 25 26 27 28 29 30 31 32 33 34 35 36 37 38 39 40 41 42 43 44 45 46 47 48 49 50
000
ASUS43 KLSX 251510
RWRMO

WEATHER SUMMARY FOR MISSOURI
NATIONAL WEATHER SERVICE SPRINGFIELD MO
1000 AM CDT THU AUG 25 2016

NOTE: "FAIR" INDICATES FEW OR NO CLOUDS BELOW 12,000 FEET WITH NO
       SIGNIFICANT WEATHER AND/OR OBSTRUCTIONS TO VISIBILITY.
       CURRENT SKY AND/OR WEATHER CONDITIONS ARE NOT AVAILABLE FOR
       CHILLICOTHE AND FARMINGTON.

MOZ001>031-035>038-043-044-053-054-251600-
...NORTHERN AND WESTERN MISSOURI...

CITY           SKY/WX    TMP DP  RH WIND       PRES   REMARKS
KANSAS CTY INT CLOUDY    73  69  87 SE6       30.08R
KANSAS C DTWN  CLOUDY    76  72  87 SE5       30.07R
LEE`S SUMMIT   CLOUDY    72  71  97 E3        30.10R
ST JOSEPH      HVY RAIN  68  66  93 N16       30.08R FOG
CHILLICOTHE      N/A     72  71  97 E5        30.06
KIRKSVILLE     CLOUDY    73  69  87 CALM      30.10R

$$
MOZ066>068-077>081-088>096-101>105-251600-
...SOUTHWEST MISSOURI...

CITY           SKY/WX    TMP DP  RH WIND       PRES   REMARKS
SPRINGFIELD    SUNNY     81  70  69 SW14      30.11S
JOPLIN         SUNNY     83  70  64 SW13G22   30.09S
BRANSON        SUNNY     81  72  74 SW7       30.15R

$$
MOZ032>034-039>042-045>050-055>058-069>072-251600-
...CENTRAL MISSOURI...

CITY           SKY/WX    TMP DP  RH WIND       PRES   REMARKS
COLUMBIA       MOSUNNY   80  71  74 W12       30.09R
JEFFERSON CITY PTSUNNY   80  70  71 SW6       30.08R
ROLLA          SUNNY     79  70  74 SW12      30.10R
SEDALIA        CLOUDY    77  71  82 VRB3      30.10R
WHITEMAN AFB   PTSUNNY   74  74 100 W5        30.09R
OSAGE BEACH    PTSUNNY   80  69  69 W7        30.11R

$$
MOZ051-052-059>065-251600-
...EAST CENTRAL MISSOURI...

CITY           SKY/WX    TMP DP  RH WIND       PRES   REMARKS
ST LOUIS INTL  MOSUNNY   86  71  60 SW9       30.07R HX  91
SPIRIT OF STL  MOSUNNY   84  73  69 SW8       30.05R HX  90
ST CHARLES     SUNNY     83  73  72 VRB5      30.06R

$$
MOZ072>076-082>087-097>100-106>115-251600-
...SOUTH CENTRAL AND SOUTHEAST MISSOURI...

CITY           SKY/WX    TMP DP  RH WIND       PRES   REMARKS
CAPE GIRARDEAU SUNNY     84  75  74 SW6       30.10S HX  92
FARMINGTON     SUNNY     83  73  72 SW9       30.12R
POPLAR BLUFF   SUNNY     84  76  76 SW7       30.11R HX  93
WEST PLAINS    SUNNY     82  72  71 W7        30.16R

$$




USA.gov is the U.S. government's official web portal to all federal, state and local government web resources and services.